Home > Weather > Regensdorf > Past weeks

Flag for Switzerland Past Weather in Regensdorf, Zurich, Switzerland — Yesterday and Last 2 Weeks

Now
71 °F

Mild.


Feels Like: 74 °F
Forecast: 59 / 76 °F
Wind: 12 mph from North

Location: Zurich-Kloten

Current Time: Jul 26, 2016 at 11:56:52 PM

Latest Report: Jul 26, 2016 at 10:00 PM


Visibility: N/A

Pressure: 30.07 "Hg

Humidity: 72%

Dew Point: 62 °F

Location of RegensdorfLocation

Past Weather in Regensdorf — Graph

°F

Regensdorf Temperature Yesterday

Maximum temperature yesterday: 80 °F (at 3:00 PM)
Minimum temperature yesterday: 62 °F (at 6:00 AM)
Average temperature yesterday: 70 °F

High & Low Weather Summary for the Past Weeks

 TemperatureHumidityPressure
High90 °F (Jul 20, 4:00 PM)100% (Jul 16, 6:00 AM)30.38 "Hg (Jul 16, 6:00 AM)
Low44 °F (Jul 16, 5:00 AM)30% (Jul 20, 7:00 PM)29.88 "Hg (Jul 20, 7:00 PM)
Average66 °F76%30.09 "Hg
* Reported Jul 11 10:00 PM — Jul 26 10:00 PM, Regensdorf, Weather by CustomWeather, © 2016

Note: Actual official high and low records may vary slightly from our data, if they occured in-between our weather recording intervals... More about our weather records

Advertising

Regensdorf Weather History for the Previous 24 Hours

Scroll right to see more
 ConditionsComfort  
Time TempWeatherWind HumidityBarometerVisibility
10:00 PM
Tue, Jul 26
71 °FMild.12 mph72%30.07 "HgN/A
9:00 PM75 °FMild.5 mph63%30.03 "HgN/A
8:00 PM78 °FScattered clouds.6 mph60%30.01 "Hg16 mi
7:00 PM80 °FWarm.1 mph48%30.00 "HgN/A
6:00 PM82 °FWarm.2 mph48%30.00 "HgN/A
5:00 PM81 °FPassing clouds.5 mph49%30.01 "Hg14 mi
4:00 PM80 °FWarm.3 mph50%30.03 "HgN/A
3:00 PM81 °FWarm.3 mph52%30.03 "HgN/A
2:00 PM79 °FPassing clouds.5 mph55%30.05 "Hg16 mi
1:00 PM75 °FMild.3 mph61%30.08 "HgN/A
12:00 PM73 °FMild.2 mph72%30.09 "HgN/A
11:00 AM71 °FPassing clouds.3 mph76%30.11 "Hg9 mi
10:00 AM67 °FMild.2 mph89%30.12 "HgN/A
9:00 AM65 °FMild.1 mph94%30.13 "HgN/A
8:00 AM63 °FFog.2 mph97%30.13 "Hg1 mi
7:00 AM62 °FMild.1 mph100%30.12 "HgN/A
6:00 AM61 °FCool.2 mph99%30.12 "HgN/A
5:00 AM62 °FFog.2 mph98%30.12 "Hg3 mi
4:00 AM63 °FMild.5 mph96%30.12 "HgN/A
3:00 AM64 °FMild.1 mph98%30.13 "HgN/A
2:00 AM64 °FOvercast.3 mph96%30.13 "Hg12 mi
1:00 AM65 °FMild.5 mph92%30.13 "HgN/A
12:00 AM66 °FMild.7 mph95%30.14 "HgN/A
11:00 PM
Mon, Jul 25
68 °FRain. Overcast.8 mph94%30.12 "Hg7 mi
Weather by CustomWeather, © 2016

See weather overviewHow to use our weather pages